Location: Sun City Center
(27.6996°N, 82.3528°W)
Time: 19:55:43
(UTC-04:00)

Cosmos 2084 Rocket - Visible Passes

Search period start: 24 April 2014 00:00
Search period end: 04 May 2014 00:00
Orbit: 569 x 629 km, 62.8° (Epoch: 24 April)

Date Brightness Start Highest point End Pass type
(mag) Time Alt. Az. Time Alt. Az. Time Alt. Az.
24 Apr 6.6 23:20:15 10° NNW 23:20:36 12° NNW 23:20:36 12° NNW visible
25 Apr 5.9 21:53:26 10° NNE 21:54:39 13° NE 21:54:39 13° NE visible
25 Apr 6.8 23:31:15 10° NW 23:31:23 11° NW 23:31:23 11° NW visible
26 Apr 5.4 22:03:05 10° N 22:05:29 22° NNE 22:05:29 22° NNE visible
27 Apr 4.8 22:13:26 10° NNW 22:16:22 35° N 22:16:22 35° N visible
28 Apr 4.6 22:24:12 10° NNW 22:27:19 43° NW 22:27:19 43° NW visible
29 Apr 5.3 20:56:41 10° N 20:59:47 18° NE 21:01:35 15° E visible
29 Apr 5.2 22:35:22 10° NW 22:38:19 30° W 22:38:19 30° W visible
30 Apr 4.5 21:06:43 10° N 21:10:50 34° ENE 21:12:39 24° E visible
30 Apr 6.0 22:47:12 10° WNW 22:49:24 17° W 22:49:24 17° W visible
01 May 3.5 21:17:14 10° NNW 21:21:46 69° ENE 21:23:49 32° SE visible
02 May 4.1 21:28:09 10° NW 21:32:36 56° WSW 21:35:03 25° S visible
03 May 5.4 21:39:32 10° NW 21:43:20 27° WSW 21:46:22 14° SSW visible
